Location: Peterborough
(44.3091°N, 78.3197°W)
Time: 00:35:38
(UTC-04:00)

Vanguard 1 Rocket - Pass Details

Date: 28 March 2023
Orbit: 655 x 4220 km, 34.3° (Epoch: 02 June)

Event Time Altitude Azimuth Distance (km) Brightness Sun altitude
Rises 01:02:22 0° 254° (WSW) 8,347 12.2 -42.7°
Reaches altitude 10° 01:08:41 10° 251° (WSW) 7,073 11.7 -42.8°
Enters shadow 01:18:24 30° 242° (WSW) 4,978 10.8 -42.8°
Exits shadow 01:42:18 - 103° (ESE) 4,362 10.8 -42.5°
Sets 01:43:32 0° 101° (ESE) 4,693 11.0 -42.5°
